This is the latest recevied weather packets stored in our database for station/object W4EDL-13. If no packets are shown the sender has not sent any weather packets the latest 10 day(s).
| Time | Temp. | Humidity | Pressure | Rain* | Wind** | Luminosity | Snow |
|---|---|---|---|---|---|---|---|
| 1777838763 | 26.67° C | 54% | 1007.3 hPa | - | - | - | - |
| 1777838184 | 26.67° C | 56% | 1007.6 hPa | - | - | - | - |
| 1777838163 | 26.67° C | 56% | 1007.6 hPa | - | - | - | - |
| 1777837583 | 25.56° C | 56% | 1007.6 hPa | - | - | - | - |
| 1777837562 | 25.56° C | 56% | 1007.6 hPa | - | - | - | - |
| 1777836983 | 26.67° C | 56% | 1008 hPa | - | - | - | - |
| 1777836961 | 26.67° C | 56% | 1008 hPa | - | - | - | - |
| 1777836382 | 26.11° C | 56% | 1008 hPa | - | - | - | - |
| 1777836361 | 26.67° C | 53% | 1008 hPa | - | - | - | - |
| 1777835781 | 26.67° C | 56% | 1008 hPa | - | - | - | - |
| 1777835760 | 26.11° C | 54% | 1008 hPa | - | - | - | - |
| 1777835181 | 26.67° C | 55% | 1008.3 hPa | - | - | - | - |
| 1777835160 | 26.67° C | 55% | 1008.3 hPa | - | - | - | - |
| 1777834580 | 25.56° C | 56% | 1008.6 hPa | - | - | - | - |
| 1777834559 | 25.56° C | 56% | 1008.6 hPa | - | - | - | - |
| 1777833980 | 26.67° C | 55% | 1008.6 hPa | - | - | - | - |
| 1777833958 | 26.67° C | 55% | 1008.6 hPa | - | - | - | - |
| 1777833379 | 26.67° C | 57% | 1008.6 hPa | - | - | - | - |
| 1777833357 | 26.67° C | 57% | 1008.6 hPa | - | - | - | - |
| 1777832778 | 25.56° C | 59% | 1008.6 hPa | - | - | - | - |
| 1777832757 | 25° C | 59% | 1008.6 hPa | - | - | - | - |
| 1777832178 | 26.67° C | 55% | 1008.6 hPa | - | - | - | - |
| 1777832156 | 26.67° C | 57% | 1008.6 hPa | - | - | - | - |
| 1777831577 | 26.11° C | 57% | 1008.6 hPa | - | - | - | - |
| 1777831556 | 26.11° C | 57% | 1008.6 hPa | - | - | - | - |
* Rain since midnight (hover to see other rain measurements)
** Current wind speed in m/s (hover to see current wind gust speed)